EW3994 Weather Reports


Display with metric or nautical units.
time (UTC)temp
F
wind
direction
speed
MPH
gust
MPH
rain 1hr
in
rain 24hr
in
rain mn
in
humidity
%
barometer
mb
20260906144529 49 97 1.0 3.0 0.00 0.03 0.00 64 1026.7
20260906143629 49 95 2.0 4.0 0.00 0.03 0.00 64 1026.7
20260906142729 49 94 3.0 4.0 0.00 0.03 0.03 64 1026.6
20260906141829 49 103 1.0 3.0 0.00 0.03 0.03 63 1026.6
20260906140930 50 110 0.0 1.0 0.00 0.03 0.03 64 1026.6
20260906140029 50 110 1.0 3.0 0.00 0.03 0.03 63 1026.6
20260906135129 50 108 2.0 6.0 0.00 0.03 0.03 63 1026.3
20260906133329 50 121 2.0 3.0 0.00 0.03 0.03 63 1026.1
20260906132429 50 122 2.0 4.0 0.00 0.03 0.03 63 1026.2
20260906131529 50 123 2.0 3.0 0.00 0.03 0.03 63 1026.3
20260906130629 51 148 2.0 3.0 0.00 0.03 0.03 63 1026.2
20260906125729 51 183 2.0 3.0 0.00 0.03 0.03 63 1026.3
20260906124829 51 190 2.0 4.0 0.00 0.03 0.03 63 1026.2
20260906123929 51 149 1.0 4.0 0.00 0.03 0.03 63 1026.1
20260906123029 51 145 1.0 2.0 0.00 0.03 0.03 63 1025.9
20260906122129 52 145 1.0 3.0 0.00 0.03 0.03 63 1025.6
20260906121229 52 145 2.0 4.0 0.00 0.03 0.03 62 1025.6
20260906120329 52 147 2.0 3.0 0.00 0.03 0.03 63 1025.6
20260906114529 53 160 2.0 4.0 0.00 0.03 0.03 62 1025.7
20260906112729 53 162 3.0 6.0 0.00 0.03 0.03 62 1025.6
20260906111829 53 172 2.0 6.0 0.00 0.03 0.03 62 1025.5
20260906110929 53 190 4.0 8.0 0.00 0.03 0.03 62 1025.4
20260906105129 54 184 2.0 5.0 0.00 0.03 0.03 61 1025.2
20260906104229 54 184 3.0 6.0 0.00 0.03 0.03 61 1025.1
20260906103329 54 176 2.0 6.0 0.00 0.03 0.03 60 1025.0
20260906102429 54 206 2.0 4.0 0.00 0.03 0.03 60 1024.8
20260906101530 54 248 2.0 4.0 0.00 0.03 0.03 60 1024.8
20260906100629 54 241 2.0 4.0 0.00 0.03 0.03 60 1024.7
20260906095729 55 215 2.0 4.0 0.00 0.03 0.03 60 1024.8
20260906094829 55 228 1.0 3.0 0.00 0.03 0.03 59 1024.8
20260906093929 55 228 1.0 2.0 0.00 0.03 0.03 59 1024.7
20260906093029 56 228 1.0 2.0 0.00 0.03 0.03 60 1024.6
20260906092129 56 228 1.0 3.0 0.00 0.03 0.03 60 1024.6
20260906091228 56 223 2.0 4.0 0.00 0.03 0.03 60 1024.5
20260906090328 56 232 3.0 7.0 0.00 0.04 0.03 60 1024.7
20260906083628 56 171 2.0 4.0 0.00 0.04 0.03 60 1024.5
20260906082729 57 201 3.0 6.0 0.00 0.04 0.03 60 1024.5
20260906081829 57 220 3.0 5.0 0.00 0.04 0.03 59 1024.4
20260906080028 57 221 4.0 8.0 0.00 0.04 0.03 58 1024.2
20260906075128 58 239 4.0 8.0 0.00 0.04 0.03 58 1024.1
20260906073331 58 248 5.0 9.0 0.00 0.04 0.03 57 1023.9
20260906072430 58 248 6.0 10.0 0.00 0.04 0.03 56 1023.7
20260906071528 58 244 5.0 10.0 0.00 0.04 0.03 56 1023.7
20260906070628 59 249 5.0 10.0 0.00 0.04 0.03 56 1023.6
20260906065728 59 260 5.0 10.0 0.00 0.04 0.03 55 1023.5
20260906063928 60 258 3.0 7.0 0.00 0.04 0.03 56 1023.3
20260906063028 60 259 5.0 9.0 0.00 0.04 0.03 56 1023.4
20260906062128 60 258 5.0 9.0 0.00 0.04 0.03 56 1023.4
20260906061228 60 263 6.0 11.0 0.00 0.04 0.03 56 1023.3
20260906060328 60 259 7.0 13.0 0.00 0.04 0.03 57 1023.2
20260906055428 60 257 6.0 13.0 0.00 0.04 0.03 56 1023.2
20260906054528 60 235 5.0 10.0 0.00 0.04 0.03 56 1023.1
20260906053628 61 250 6.0 10.0 0.00 0.04 0.03 55 1023.1
20260906052729 60 258 5.0 12.0 0.00 0.04 0.03 56 1022.9
20260906051828 60 252 5.0 10.0 0.00 0.04 0.03 57 1022.8
20260906050928 59 242 5.0 10.0 0.00 0.04 0.03 57 1022.8
20260906050028 60 263 6.0 10.0 0.00 0.04 0.03 57 1022.8
20260906045128 60 251 5.0 9.0 0.00 0.04 0.03 57 1022.8
20260906043329 60 237 5.0 10.0 0.00 0.04 0.03 57 1022.7
20260906042428 59 233 5.0 9.0 0.00 0.04 0.03 59 1022.8
20260906040629 58 268 6.0 9.0 0.00 0.04 0.03 60 1022.9
20260906035728 58 263 6.0 10.0 0.00 0.04 0.03 59 1022.9
20260906034829 58 257 5.0 9.0 0.00 0.04 0.03 59 1023.1
20260906033928 58 259 6.0 9.0 0.00 0.04 0.03 60 1023.2
20260906032128 57 271 3.0 8.0 0.00 0.04 0.03 61 1023.2
20260906030328 57 249 1.0 3.0 0.00 0.04 0.03 61 1023.4
20260906025429 57 138 0.0 2.0 0.00 0.04 0.03 61 1023.6
20260906023629 57 176 2.0 5.0 0.00 0.04 0.03 63 1023.6
20260906022728 57 165 2.0 6.0 0.00 0.04 0.03 63 1023.6
20260906021828 57 155 1.0 3.0 0.00 0.04 0.03 63 1023.7
20260906020928 57 169 2.0 5.0 0.00 0.06 0.03 64 1023.7
20260906014228 56 262 3.0 5.0 0.00 0.06 0.03 63 1024.0
20260906012428 58 287 2.0 8.0 0.00 0.06 0.03 63 1024.1
20260906011528 57 331 3.0 5.0 0.00 0.06 0.03 65 1024.1
20260906010627 57 339 2.0 6.0 0.00 0.06 0.03 65 1024.1
20260906005728 57 307 1.0 3.0 0.00 0.06 0.03 65 1024.0
20260906004827 56 294 1.0 3.0 0.00 0.06 0.03 65 1024.0
20260906003927 56 285 2.0 4.0 0.00 0.06 0.03 65 1024.0
20260906003028 56 269 2.0 6.0 0.00 0.06 0.03 64 1024.0
20260906002127 55 271 5.0 10.0 0.00 0.06 0.03 63 1024.0
20260906001227 56 262 3.0 11.0 0.00 0.06 0.03 62 1024.0
20260905235427 58 298 1.0 3.0 0.01 0.06 0.03 66 1023.8
20260905234527 56 295 2.0 4.0 0.01 0.06 0.03 67 1023.7
20260905233627 55 299 2.0 4.0 0.01 0.06 0.03 67 1023.7
20260905232727 55 297 2.0 4.0 0.01 0.06 0.03 68 1023.6
20260905230927 55 290 1.0 4.0 0.01 0.09 0.03 67 1023.4
20260905230027 54 124 0.0 1.0 0.02 0.09 0.03 67 1023.3
20260905225127 53 125 1.0 2.0 0.01 0.08 0.02 67 1023.2
20260905224227 53 124 0.0 1.0 0.01 0.08 0.02 66 1023.1
20260905223327 54 191 1.0 3.0 0.01 0.08 0.02 66 1023.1
20260905222427 55 186 1.0 3.0 0.02 0.08 0.02 66 1022.8
20260905221527 54 186 1.0 2.0 0.02 0.08 0.02 66 1022.7
20260905220629 53 207 1.0 2.0 0.02 0.08 0.02 65 1022.4
20260905214827 53 224 2.0 3.0 0.01 0.07 0.02 65 1022.4
20260905213928 53 216 1.0 4.0 0.01 0.07 0.02 65 1022.2
20260905213027 52 221 1.0 4.0 0.01 0.07 0.02 65 1022.1
20260905212127 52 192 1.0 3.0 0.00 0.06 0.01 64 1021.9
20260905211227 52 168 1.0 5.0 0.00 0.06 0.01 64 1021.7
20260905205427 52 168 0.0 2.0 0.00 0.06 0.01 64 1021.5
20260905204527 52 168 1.0 4.0 0.00 0.06 0.01 64 1021.4
20260905203627 52 212 2.0 4.0 0.00 0.06 0.01 65 1021.4
20260905202727 52 260 4.0 9.0 0.00 0.06 0.01 64 1021.3
20260905201827 52 253 2.0 9.0 0.00 0.06 0.01 64 1021.2
20260905200927 52 262 2.0 3.0 0.00 0.06 0.01 64 1021.1
20260905200027 52 233 2.0 5.0 0.00 0.06 0.01 64 1021.0
20260905195127 52 231 3.0 9.0 0.00 0.06 0.01 64 1020.9
20260905194227 52 240 1.0 2.0 0.00 0.06 0.01 64 1020.9
20260905193327 52 254 1.0 3.0 0.00 0.06 0.01 64 1020.9
20260905192427 52 261 0.0 1.0 0.00 0.06 0.01 64 1020.8
20260905191527 53 262 0.0 2.0 0.00 0.06 0.01 64 1020.7
20260905184827 53 270 2.0 4.0 0.00 0.06 0.01 64 1020.6
20260905183927 53 263 1.0 3.0 0.00 0.06 0.01 64 1020.5
20260905183027 53 270 2.0 4.0 0.00 0.06 0.01 64 1020.3
20260905182127 53 269 3.0 7.0 0.00 0.06 0.01 64 1020.4
20260905181226 53 270 3.0 6.0 0.00 0.06 0.01 64 1020.3
20260905175427 54 271 3.0 6.0 0.00 0.06 0.01 64 1020.3
20260905174527 54 269 4.0 9.0 0.00 0.06 0.01 64 1020.4
20260905173627 53 277 4.0 8.0 0.00 0.06 0.01 64 1020.4
20260905171826 53 271 4.0 8.0 0.00 0.06 0.01 64 1020.5
20260905170026 53 268 4.0 10.0 0.00 0.06 0.01 64 1020.8
20260905165126 53 265 7.0 12.0 0.00 0.06 0.01 64 1020.8
20260905164227 53 268 4.0 9.0 0.00 0.06 0.01 64 1020.8
20260905163326 53 273 2.0 6.0 0.00 0.06 0.01 64 1020.8
20260905162426 53 280 2.0 5.0 0.01 0.06 0.01 64 1020.7
20260905161526 53 280 2.0 4.0 0.01 0.06 0.01 64 1020.8
20260905160626 53 271 3.0 5.0 0.01 0.06 0.01 64 1020.9
20260905155726 54 263 2.0 4.0 0.01 0.06 0.01 64 1020.9
20260905154826 54 257 3.0 7.0 0.01 0.06 0.01 64 1020.9
20260905153926 54 255 6.0 14.0 0.01 0.06 0.01 64 1021.0
20260905153026 54 256 8.0 16.0 0.00 0.06 0.00 64 1020.9
20260905152126 54 268 5.0 12.0 0.00 0.06 0.00 64 1020.8
20260905151226 54 270 5.0 9.0 0.00 0.06 0.00 64 1020.7
20260905150326 54 269 7.0 12.0 0.00 0.06 0.00 64 1020.7
20260905145426 54 270 4.0 11.0 0.00 0.06 0.00 64 1020.6